Location: Passo di Treia
(43.2833°N, 13.3333°E)
Time: 14:52:10
(UTC+00:00)

Genesis I - Pass Details

Date: 09 December 2019
Orbit: 494 x 529 km, 64.5° (Epoch: 26 January)

Event Time Altitude Azimuth Distance (km) Brightness Sun altitude
Rises 17:08:09 0° 331° (NNW) 2,643 7.0 -17.0°
Reaches altitude 10° 17:10:27 10° 339° (NNW) 1,746 5.9 -17.4°
Enters shadow 17:13:56 39° 40° (NE) 776 3.6 -18.0°
